GEFSCGP_con_cape1000_096.txt.gz
Probability
0 0 0 0 0 0 0 0 0 0 0 0 0 13 6 0 6 19 19 26 48 39 32 32 29 32 42 45 32 29 32 19 16 10 3 0 0 0 0 0 0 0 0 0
0 0 0 0 0 0 0 0 0 0 0 0 0 6 10 10 6 10 19 19 26 23 23 32 29 35 42 42 32 32 29 19 13 6 6 0 0 0 0 0 0 0 0 0
0 0 0 0 0 0 0 0 0 0 0 0 0 0 3 6 6 6 13 16 19 23 29 32 35 32 45 39 42 45 29 23 10 6 3 0 0 0 0 0 0 0 0 0
0 0 0 0 0 0 0 0 0 0 0 0 0 0 0 3 0 6 10 16 16 26 29 35 29 35 39 39 39 29 32 23 3 3 3 3 0 0 0 0 0 0 0 0
0 0 0 0 0 0 0 0 0 0 0 0 0 0 0 0 0 3 10 16 19 19 23 29 35 29 29 35 32 29 29 16 3 3 3 3 0 0 0 0 0 0 0 0
0 0 0 0 0 0 0 0 0 0 0 0 0 0 0 0 0 3 3 10 10 23 29 29 35 32 29 32 32 39 26 13 10 3 3 0 0 0 0 0 0 0 0 0
0 0 0 0 0 0 0 0 0 0 0 0 0 0 0 0 3 0 0 3 13 19 29 29 29 29 26 29 29 39 29 23 10 10 3 0 0 0 0 0 0 0 0 0
0 0 0 0 0 0 0 0 0 0 0 0 0 0 0 0 3 3 0 0 13 19 23 29 29 32 26 26 32 35 29 19 13 13 10 6 6 3 0 0 0 0 0 0
0 0 0 0 0 0 0 0 0 0 0 0 0 0 0 0 0 0 0 0 3 16 23 32 29 32 26 29 39 39 26 16 23 13 13 10 6 6 6 0 0 0 0 0
0 0 0 0 0 0 0 0 0 0 0 0 0 0 0 0 0 0 0 3 6 23 26 32 32 32 32 32 35 39 29 26 29 19 13 13 13 10 6 6 6 3 0 0
0 0 0 0 0 0 0 0 0 0 0 0 0 0 0 3 0 0 0 0 6 13 16 19 29 32 29 26 32 32 29 29 29 23 19 16 16 13 10 6 6 6 3 0
0 0 0 0 0 0 0 0 0 0 0 0 0 0 3 3 0 3 3 3 10 16 16 19 19 29 29 29 32 35 26 29 26 26 19 19 19 16 13 13 13 10 3 0
0 0 0 0 0 0 0 0 0 0 0 0 0 0 3 3 0 0 3 0 10 10 10 10 16 23 26 29 32 35 29 29 26 23 19 19 19 23 23 19 16 16 6 3
0 0 0 0 0 0 0 0 0 0 0 0 0 0 3 0 0 0 3 6 6 3 10 13 16 19 19 26 26 26 26 32 29 26 26 23 26 23 19 19 23 16 13 6
0 0 0 0 0 0 0 0 0 0 0 0 0 3 0 0 0 0 0 3 3 3 6 10 13 13 13 13 16 26 23 29 29 29 26 26 23 19 16 13 16 16 13 16
0 0 0 0 0 0 0 0 0 0 0 0 0 0 0 0 0 0 3 3 10 10 10 6 3 3 3 6 10 13 13 16 23 23 16 19 16 19 13 13 19 23 19 16
0 0 0 0 0 0 0 0 0 0 0 0 0 3 3 0 3 6 10 13 13 16 10 0 3 3 3 3 6 10 10 6 10 13 10 13 13 19 16 19 10 16 13 10
0 0 0 0 0 0 0 0 0 0 0 0 6 3 10 10 6 3 3 6 6 6 0 3 6 6 6 6 6 6 6 6 3 3 6 13 13 13 13 13 13 6 10 10
0 0 0 0 0 0 0 0 0 0 3 6 10 10 10 13 13 13 6 6 6 3 3 6 3 3 3 3 3 3 6 3 3 3 3 6 13 16 16 19 16 3 3 3
0 0 0 0 0 0 0 0 0 3 6 6 16 10 6 6 10 13 10 6 6 0 0 0 0 0 0 0 0 0 0 0 0 3 3 6 6 6 3 3 0 0 0 0
0 0 0 0 0 0 0 0 0 0 3 3 10 6 3 6 10 10 6 0 0 0 0 0 0 0 0 0 0 0 0 0 0 0 0 0 0 0 0 0 0 0 0 0
0 0 0 0 0 0 0 0 0 0 0 3 6 6 13 10 3 0 0 0 0 0 0 0 0 0 0 0 0 0 0 0 0 0 0 0 0 0 0 0 0 0 0 0
0 0 0 0 0 0 0 0 0 0 6 10 3 3 10 6 0 0 0 0 0 0 0 0 0 0 0 0 0 0 0 0 0 0 0 0 0 0 0 0 0 0 0 0
0 0 0 0 0 0 0 0 0 6 3 3 3 6 0 0 0 0 0 0 0 0 0 0 0 0 0 0 0 0 0 0 0 0 0 0 0 0 0 0 0 0 0 0
0 0 0 0 0 0 0 0 0 3 3 3 3 0 0 0 0 0 0 0 0 0 0 0 0 0 0 0 0 0 0 0 0 0 0 0 0 0 0 0 0 0 0 0
0 0 0 0 0 0 0 0 6 6 3 0 0 0 0 0 0 0 0 0 0 0 0 0 0 0 0 0 0 0 0 0 0 0 0 0 0 0 0 0 0 0 0 0

GEFSCGP_con_cape1000_102.txt.gz
Probability
0 0 0 0 0 0 0 0 0 0 0 0 0 0 3 13 16 19 16 16 16 13 6 13 13 16 16 6 6 6 6 6 6 3 6 0 0 0 0 0 0 0 0 0
0 0 0 0 0 0 0 0 0 0 0 0 0 0 0 6 16 16 16 16 13 13 10 10 10 19 16 13 13 13 6 6 6 6 3 0 0 0 0 0 0 0 0 0
0 0 0 0 0 0 0 0 0 0 0 0 0 0 0 0 3 10 16 16 10 13 16 13 13 19 23 10 6 10 6 6 6 3 0 0 0 0 0 0 0 0 0 0
0 0 0 0 0 0 0 0 0 0 0 0 0 0 0 0 3 3 10 10 13 13 13 10 13 13 19 19 6 6 6 10 6 3 0 0 0 0 0 0 0 0 0 0
0 0 0 0 0 0 0 0 0 0 0 0 0 0 0 0 0 0 6 10 10 10 10 13 13 6 6 19 16 13 10 10 6 3 3 0 0 0 0 0 0 0 0 0
0 0 0 0 0 0 0 0 0 0 0 0 0 0 0 0 0 0 0 6 10 6 10 13 10 6 6 6 10 13 10 13 6 3 3 0 0 0 0 0 0 0 0 0
0 0 0 0 0 0 0 0 0 0 0 0 0 0 0 0 0 0 0 0 3 0 3 10 10 10 6 10 16 13 10 10 6 3 3 3 0 0 0 0 0 0 0 0
0 0 0 0 0 0 0 0 0 0 0 0 0 0 0 0 0 0 0 0 0 0 3 10 10 10 10 6 10 13 10 10 10 6 3 0 0 0 0 0 0 0 0 0
0 0 0 0 0 0 0 0 0 0 0 0 0 0 0 0 0 0 0 0 0 0 0 3 6 10 10 6 19 16 10 10 10 10 6 3 0 0 0 0 0 0 0 0
0 0 0 0 0 0 0 0 0 0 0 0 0 0 0 0 0 0 0 0 0 0 3 0 3 10 10 10 13 16 13 13 10 10 6 6 6 0 0 0 0 0 0 0
0 0 0 0 0 0 0 0 0 0 0 0 0 0 0 0 0 0 0 0 0 0 0 0 3 6 13 13 13 16 19 16 13 10 6 6 6 3 0 0 0 0 0 0
0 0 0 0 0 0 0 0 0 0 0 0 0 0 0 0 0 0 0 3 3 3 3 6 6 6 16 13 13 13 16 13 10 10 6 6 6 6 3 3 3 3 3 0
0 0 0 0 0 0 0 0 0 0 0 0 0 0 0 0 0 0 0 3 3 3 0 6 10 10 10 13 13 16 16 16 13 10 10 10 10 10 10 3 3 3 3 0
0 0 0 0 0 0 0 0 0 0 0 0 0 0 0 0 0 0 0 0 3 3 0 3 3 6 10 10 10 16 16 13 6 10 10 13 10 10 6 3 3 3 3 3
0 0 0 0 0 0 0 0 0 0 0 0 0 0 0 0 0 0 0 0 3 3 3 0 3 3 6 10 10 10 10 10 10 13 10 10 6 6 6 3 3 0 0 3
0 0 0 0 0 0 0 0 0 0 0 0 0 0 0 0 0 0 0 0 0 3 6 3 3 3 3 3 6 6 6 6 10 10 6 6 6 6 6 6 3 3 3 3
0 0 0 0 0 0 0 0 0 0 0 0 0 0 0 0 0 0 0 0 0 0 3 3 3 3 3 3 3 3 3 10 10 3 3 6 6 6 6 6 6 3 3 3
0 0 0 0 0 0 0 0 0 0 0 0 0 0 0 0 0 0 0 0 0 0 0 3 3 3 3 3 3 3 3 3 3 3 3 3 3 3 3 3 3 3 3 3
0 0 0 0 0 0 0 0 0 0 0 0 0 0 3 3 3 3 3 3 0 0 0 0 0 3 3 3 3 3 3 3 3 3 3 3 3 3 3 3 3 3 3 3
0 0 0 0 0 0 0 0 0 0 0 0 0 3 6 3 0 3 0 0 0 0 0 0 0 0 0 0 3 3 3 3 3 3 0 0 0 0 0 0 0 0 0 0
0 0 0 0 0 0 0 0 0 0 0 0 0 0 0 0 0 0 0 0 0 0 0 0 0 0 0 0 0 0 0 0 0 0 0 0 0 0 0 0 0 0 0 0
0 0 0 0 0 0 0 0 0 0 0 0 0 0 0 0 0 0 0 0 0 0 0 0 0 0 0 0 0 0 0 0 0 0 0 0 0 0 0 0 0 0 0 0
0 0 0 0 0 0 0 0 0 0 0 3 0 0 0 0 0 0 0 0 0 0 0 0 0 0 0 0 0 0 0 0 0 0 0 0 0 0 0 0 0 0 0 0
0 0 0 0 0 0 0 0 0 3 0 0 0 0 0 0 0 0 0 0 0 0 0 0 0 0 0 0 0 0 0 0 0 0 0 0 0 0 0 0 0 0 0 0
0 0 0 0 0 0 0 0 0 0 0 0 0 0 0 0 0 0 0 0 0 0 0 0 0 0 0 0 0 0 0 0 0 0 0 0 0 0 0 0 0 0 0 0
0 0 0 0 0 0 0 0 0 0 0 0 0 0 0 0 0 0 0 0 0 0 0 0 0 0 0 0 0 0 0 0 0 0 0 0 0 0 0 0 0 0 0 0

GEFSCGP_con_cape1000_108.txt.gz
Probability
0 0 0 0 0 0 0 0 0 0 0 0 0 3 13 29 42 48 65 52 52 52 65 61 58 52 52 52 55 61 77 90 90 81 68 65 68 58 45 32 26 26 13 13
0 0 0 0 0 0 0 0 0 0 0 0 0 0 13 29 45 48 55 55 45 52 58 65 58 52 52 55 58 68 77 81 87 84 81 81 71 52 39 26 29 16 16 6
0 0 0 0 0 0 0 0 0 0 0 0 0 0 16 23 32 35 39 48 48 48 55 61 58 52 48 52 48 52 71 71 81 77 81 68 68 35 29 26 23 16 10 6
0 0 0 0 0 0 0 0 0 0 0 0 0 0 10 6 13 23 26 32 39 48 55 61 55 52 58 45 48 58 68 74 74 74 61 52 48 35 19 26 19 16 10 10
0 0 0 0 0 0 0 0 0 0 0 0 0 0 0 10 6 10 29 23 45 39 42 48 45 48 52 42 48 58 65 74 68 58 77 65 42 32 26 23 29 16 3 6
0 0 0 0 0 0 0 0 0 0 0 0 0 0 0 0 0 3 23 35 39 35 35 42 42 52 48 45 48 48 65 71 74 68 65 68 58 48 32 32 26 16 3 3
0 0 0 0 0 0 0 0 0 0 0 0 0 0 0 0 0 6 16 35 35 39 35 35 42 42 48 48 45 52 58 65 65 58 55 52 61 65 61 45 26 16 3 3
0 0 0 0 0 0 0 0 0 0 0 0 0 0 3 3 3 10 16 23 39 32 29 39 32 39 45 48 45 45 61 65 65 61 55 65 68 58 42 48 19 29 6 3
0 0 0 0 0 0 0 0 0 0 0 0 0 6 10 6 10 13 10 19 35 32 29 32 35 39 35 35 42 48 58 55 55 55 65 65 65 55 48 45 39 26 32 10
0 0 0 0 0 0 0 0 0 0 0 0 0 0 3 16 16 19 29 23 39 42 29 26 26 32 32 32 45 45 52 61 58 58 61 52 61 58 61 48 35 35 35 16
0 0 0 0 0 0 3 0 0 0 0 0 0 0 6 23 29 26 32 26 42 32 35 26 29 32 29 32 42 52 55 52 52 55 61 61 58 55 52 52 42 48 55 45
0 0 0 0 0 3 3 0 6 0 0 0 0 3 3 16 13 23 23 32 32 35 35 29 32 32 32 35 39 45 55 45 48 52 55 61 61 65 61 48 52 52 48 55
0 0 0 0 3 3 3 3 3 3 0 0 0 0 16 19 16 23 23 45 45 52 48 45 39 42 42 48 55 45 48 48 48 42 45 52 45 52 48 52 58 52 52 48
0 6 3 0 0 0 3 3 3 0 0 0 0 3 13 26 29 39 48 48 52 61 65 55 61 52 48 45 55 65 52 48 48 45 52 52 48 48 55 52 48 48 48 52
0 3 3 0 0 0 0 0 0 0 0 0 0 3 10 26 29 45 55 61 55 55 58 58 55 58 58 52 55 55 58 48 48 58 58 55 55 58 48 45 42 39 39 42
3 3 3 0 0 0 0 0 0 0 0 0 3 3 13 29 39 55 52 55 61 52 52 55 52 52 55 55 55 58 55 71 65 65 61 58 58 52 52 52 42 42 48 55
3 3 3 0 0 0 0 0 0 0 0 0 3 3 26 39 58 65 65 61 55 52 42 42 45 55 52 52 45 58 55 52 45 48 42 45 45 45 35 32 35 32 35 45
6 3 3 0 0 0 3 6 0 0 3 3 6 23 32 58 71 65 45 52 48 45 45 42 42 45 48 45 39 48 52 45 39 39 35 42 45 32 29 29 32 32 32 32
3 3 3 3 0 0 0 0 0 6 6 6 10 23 48 68 55 45 39 42 42 42 42 39 42 35 42 39 39 42 39 32 32 29 29 29 29 29 26 23 13 16 23 23
3 3 3 0 0 0 0 0 3 10 6 3 13 39 45 52 45 32 19 19 29 26 29 26 29 29 32 35 32 26 23 23 19 16 13 13 16 16 13 16 16 16 19 13
3 3 0 0 0 0 3 3 3 0 3 10 26 42 39 48 35 32 16 13 16 19 19 23 16 19 19 29 29 16 16 16 16 16 13 13 13 13 13 13 13 13 10 10
0 0 0 0 0 0 3 3 3 16 29 32 32 39 32 42 26 16 10 10 6 13 10 10 10 10 13 13 10 6 3 6 6 10 6 3 6 6 6 6 10 6 6 3
0 0 0 0 0 3 3 6 13 19 26 26 35 32 32 23 16 10 3 0 0 0 3 3 3 3 3 3 3 0 0 0 0 0 0 0 0 0 0 0 3 0 0 0
0 0 0 0 0 3 3 6 10 16 19 26 26 35 23 16 6 0 0 0 0 0 0 0 0 0 0 0 0 0 0 0 0 0 0 0 0 0 0 0 0 0 0 0
0 0 0 0 0 3 3 6 6 23 19 23 23 16 13 6 3 0 0 0 0 0 0 0 0 0 0 0 0 0 0 0 0 0 0 0 0 0 0 0 0 0 0 0
0 0 0 0 0 3 6 10 3 6 10 10 10 10 3 3 0 0 0 0 0 0 0 0 0 0 0 0 0 0 0 0 0 0 0 0 0 0 0 0 0 0 0 0

GEFSCGP_con_cape1000_114.txt.gz
Probability
0 0 0 0 0 0 0 0 0 0 0 0 0 0 6 10 23 39 52 61 61 65 71 71 68 68 68 65 68 65 74 74 71 71 74 77 71 68 65 61 55 48 39 39
0 0 0 0 0 0 0 0 0 0 0 0 0 0 6 13 13 35 48 58 55 58 71 68 68 61 65 65 61 65 74 74 74 84 84 87 74 68 61 58 48 45 32 35
0 0 0 0 0 0 0 0 0 0 0 0 0 0 10 10 13 29 32 52 45 48 68 68 68 61 61 71 65 61 81 84 77 77 74 84 81 68 61 58 58 39 29 23
0 0 0 0 0 0 0 0 0 0 0 0 0 0 10 10 16 23 29 48 48 48 55 65 65 61 61 68 65 74 77 81 74 81 81 81 61 55 61 68 71 55 32 23
0 0 0 0 0 0 0 0 0 0 0 0 0 0 13 10 6 6 23 35 55 55 58 61 61 61 71 74 74 74 77 77 74 74 81 81 77 68 71 68 68 61 39 35
0 0 0 0 0 0 0 0 0 0 0 0 0 0 10 3 6 13 16 32 52 55 55 58 61 71 58 68 77 71 71 74 74 74 81 84 77 77 71 68 55 65 61 48
0 0 0 0 0 0 0 0 0 0 0 0 0 0 6 0 3 6 19 29 42 42 55 71 58 58 61 68 71 71 71 77 81 74 84 84 81 81 74 65 61 61 42 45
0 0 0 0 0 0 0 0 3 0 0 0 0 3 3 3 3 6 19 26 42 42 48 65 58 55 58 58 65 68 71 74 74 74 81 87 81 77 65 81 58 55 68 48
0 0 0 0 0 0 0 0 0 0 0 0 0 3 6 10 0 3 10 19 29 42 45 55 52 55 61 65 65 68 77 74 71 71 81 84 81 74 68 74 65 61 71 55
0 0 0 0 0 0 0 0 0 0 0 0 0 0 0 10 6 6 16 19 26 35 39 48 48 55 45 65 71 74 77 81 71 71 71 74 74 71 68 71 61 68 71 61
0 0 0 0 0 0 0 0 0 0 0 0 0 0 0 10 19 13 13 26 23 35 39 52 55 42 42 48 61 68 65 81 74 71 71 71 65 65 65 65 61 68 71 71
0 0 0 0 0 0 0 0 3 3 6 6 0 0 6 16 10 13 19 29 42 52 52 65 58 55 42 48 58 65 71 68 71 68 68 65 68 65 55 55 58 61 68 68
0 3 0 0 0 0 0 0 0 3 13 3 0 0 10 16 19 23 35 55 68 65 65 68 68 61 61 61 68 65 68 61 61 65 68 61 61 58 55 52 52 58 65 55
0 0 0 0 0 0 0 0 0 0 0 0 0 6 13 16 19 23 45 61 77 87 87 84 84 77 71 74 74 71 71 61 65 65 61 61 58 52 55 52 58 61 61 58
0 0 0 0 0 0 0 0 0 0 0 0 0 6 6 19 29 32 48 61 61 87 81 81 81 81 84 74 74 77 65 65 61 61 61 55 52 52 45 42 45 45 52 42
0 0 0 0 0 0 0 0 0 0 0 0 3 3 6 23 29 35 55 58 71 81 74 74 77 74 74 74 74 77 65 68 74 65 55 55 48 45 42 35 32 39 52 48
3 3 3 0 0 0 0 0 0 0 0 0 6 6 16 29 39 52 52 61 74 71 77 74 65 65 61 61 68 71 74 74 71 71 58 55 52 45 45 32 32 26 39 32
3 13 3 0 0 0 0 0 0 0 0 10 16 23 32 52 61 65 74 68 68 68 68 58 61 61 61 65 71 74 68 65 55 55 55 45 45 35 29 23 29 29 29 23
3 3 3 3 0 0 0 0 0 3 3 13 13 26 19 58 61 58 65 58 61 52 55 55 52 55 58 61 58 52 48 52 52 42 39 32 35 29 23 23 23 16 16 13
6 6 3 3 0 0 0 0 0 0 6 19 29 32 35 48 55 58 52 42 45 39 45 48 48 45 45 42 35 35 35 35 32 26 26 26 26 23 19 13 10 6 6 6
3 3 3 3 3 0 0 0 0 3 16 32 48 55 55 61 61 45 39 35 32 32 35 35 35 35 35 35 32 32 29 29 26 26 26 19 19 19 16 16 13 10 6 10
0 0 3 3 0 0 0 0 3 16 29 29 35 45 42 52 45 35 29 32 29 32 29 32 29 29 29 29 26 26 23 23 23 16 13 13 13 10 10 13 13 10 6 6
0 0 3 0 3 10 3 6 10 13 16 19 32 19 26 23 29 26 23 23 19 26 26 26 29 26 23 26 23 19 19 16 13 10 10 10 6 6 6 6 6 6 6 3
0 0 0 0 0 0 0 3 10 13 19 19 23 19 19 16 19 23 19 16 13 13 13 10 10 10 10 10 10 10 6 6 6 6 6 3 3 3 0 0 0 3 0 6
0 0 0 0 0 0 3 3 6 10 10 13 10 16 19 19 16 16 13 10 6 3 3 3 0 0 0 0 3 3 6 6 3 3 0 0 0 0 0 0 0 0 0 0
0 0 0 0 0 3 3 6 6 6 3 6 10 10 13 13 6 13 10 6 6 6 3 0 0 0 0 0 0 0 0 0 0 0 0 0 0 0 0 0 0 0 0 0

GEFSCGP_con_cape1000_120.txt.gz
Probability
0 0 0 0 0 0 0 0 0 0 0 0 0 0 3 6 10 13 19 29 42 45 48 45 39 32 32 35 26 23 29 26 23 23 23 19 16 16 6 10 6 6 3 0
0 0 0 0 0 0 0 0 0 0 0 0 3 3 0 10 6 3 19 29 45 42 52 55 48 52 48 32 29 23 26 23 19 16 13 6 6 3 0 0 0 3 3 0
0 0 0 0 0 0 0 0 0 0 0 0 3 3 0 3 6 13 13 26 42 42 45 52 55 48 42 39 26 26 26 23 23 19 13 6 3 3 0 0 0 0 3 3
0 0 0 0 0 0 0 0 0 0 0 0 0 0 3 0 3 10 16 32 42 39 39 42 45 48 39 35 29 19 26 23 23 19 13 10 3 3 0 0 0 0 0 3
0 0 0 0 0 0 0 0 0 0 0 0 0 0 0 0 0 10 10 26 29 35 39 35 39 42 42 39 35 19 23 19 19 16 13 10 6 0 0 0 0 0 0 0
0 0 0 0 0 0 0 0 0 0 0 0 0 0 0 0 0 0 16 19 29 29 32 29 32 29 35 32 35 19 19 16 16 13 6 6 3 0 0 0 0 0 0 0
0 0 0 0 0 0 0 0 0 0 0 0 0 0 0 0 0 0 16 13 23 26 26 26 26 32 32 29 35 26 23 26 19 13 10 6 6 0 0 0 0 0 0 0
0 0 0 0 0 0 0 0 0 0 0 0 0 0 0 0 0 0 6 16 26 32 32 26 26 35 29 26 32 29 23 16 13 13 10 6 6 3 3 0 0 0 0 0
0 0 0 0 0 0 0 0 0 0 0 0 0 0 0 0 0 3 10 19 19 26 29 26 26 26 26 29 26 23 23 13 13 6 6 6 3 3 6 3 0 0 0 0
0 0 0 0 0 0 0 0 0 0 0 0 0 0 0 0 0 3 10 13 16 16 29 26 32 23 23 29 26 19 23 26 26 13 6 13 6 10 6 3 3 3 0 0
0 0 0 0 0 0 0 0 0 0 0 0 0 0 0 0 0 3 3 10 19 19 26 26 23 16 23 19 19 26 26 29 26 26 19 16 13 10 6 6 3 3 3 3
0 0 0 0 0 0 0 0 0 0 0 0 0 0 0 0 0 3 6 10 16 16 16 19 19 23 19 19 23 26 26 23 29 32 26 23 23 13 16 13 6 6 3 0
0 0 0 0 0 0 0 0 0 0 0 0 0 0 0 3 3 10 19 13 16 16 13 13 16 23 23 16 19 23 26 26 32 32 32 29 23 23 19 13 3 3 3 0
0 0 0 0 0 0 0 0 0 0 0 0 0 0 3 6 6 10 3 13 6 19 19 13 10 13 19 19 16 16 26 26 29 32 35 32 32 19 13 13 6 3 6 3
0 0 0 0 0 0 0 0 0 0 0 0 0 3 3 10 3 6 10 13 13 19 16 16 10 0 6 13 13 10 16 19 23 32 29 23 23 19 16 13 3 3 0 3
0 0 0 0 0 0 0 0 0 0 0 0 0 0 0 0 3 6 26 26 23 23 16 13 13 6 10 13 13 13 13 23 26 26 26 19 16 16 13 6 6 6 6 3
0 0 0 0 0 0 0 0 0 0 0 0 0 3 6 3 19 19 16 23 23 26 19 19 23 13 16 16 10 13 13 19 19 19 16 13 13 10 10 6 10 6 6 0
0 0 0 0 0 0 0 0 0 0 0 3 3 6 10 10 10 16 16 19 10 13 19 19 16 23 16 6 6 3 10 6 13 13 13 13 10 10 10 6 10 3 0 0
0 0 0 0 0 0 0 0 0 0 0 3 0 3 6 13 13 10 19 13 13 6 10 10 16 23 19 13 6 6 10 10 10 13 13 10 10 10 6 6 0 0 0 0
0 0 0 0 0 0 0 0 0 0 0 0 6 3 0 16 13 16 13 6 13 13 6 10 13 19 13 13 13 13 13 10 10 10 10 10 3 3 3 0 0 0 0 0
0 0 0 0 0 0 0 0 0 0 0 3 10 3 3 6 10 13 13 13 16 13 10 10 13 13 13 10 13 13 13 6 6 3 3 3 0 0 0 0 0 0 0 0
0 0 0 0 0 0 0 0 0 0 0 3 3 6 6 6 6 13 13 6 10 13 13 10 10 13 6 6 10 6 3 3 3 0 0 0 0 0 0 0 0 0 0 0
0 0 0 0 0 0 0 0 0 0 0 0 0 3 6 6 6 6 6 6 6 10 10 6 10 6 3 3 3 3 3 3 0 0 0 0 0 0 0 0 0 0 0 0
0 0 0 0 0 0 0 0 0 0 0 0 0 0 0 6 0 0 0 0 3 3 3 3 3 3 0 0 0 3 0 0 0 0 0 0 0 0 0 0 0 0 0 0
0 0 0 0 0 0 0 0 0 0 0 0 0 0 0 0 0 0 0 0 0 0 0 0 0 0 0 0 0 0 0 0 0 0 0 0 0 0 0 0 0 0 0 0
0 0 0 0 0 0 0 0 0 0 0 0 3 3 3 0 0 0 0 0 0 0 0 0 0 0 0 0 0 0 0 0 0 0 0 0 0 0 0 0 0 0 0 0

GEFSCGP_con_cape1000_126.txt.gz
Probability
0 0 0 0 0 0 0 0 0 0 0 0 0 0 3 3 16 19 29 29 26 26 23 23 29 32 23 6 6 3 0 0 6 3 3 3 3 3 0 0 3 3 3 3
0 0 0 0 0 0 0 0 0 0 0 0 0 0 0 0 3 13 26 26 29 26 32 26 29 23 16 16 6 0 3 3 3 3 3 3 3 3 3 0 3 3 3 0
0 0 0 0 0 0 0 0 0 0 0 0 0 0 0 3 3 6 10 19 29 29 35 32 23 13 16 13 10 6 3 3 3 3 3 0 0 0 0 0 3 3 0 0
0 0 0 0 0 0 0 0 0 0 0 0 0 0 0 0 0 0 3 6 26 32 32 32 29 19 10 13 13 6 3 3 3 3 3 3 3 3 0 0 0 0 0 0
0 0 0 0 0 0 0 0 0 0 0 0 0 0 0 0 0 0 3 13 19 26 29 32 32 26 16 16 13 10 3 3 6 6 3 3 3 3 0 0 0 0 0 0
0 0 0 0 0 0 0 0 0 0 0 0 0 0 0 0 0 3 3 16 23 32 29 26 26 35 16 10 6 10 6 10 6 3 3 3 3 3 0 0 0 0 0 0
0 0 0 0 0 0 0 0 0 0 0 0 0 0 0 0 0 0 3 10 19 26 23 13 19 16 10 13 16 10 10 13 6 6 6 6 6 3 3 0 0 0 0 0
0 0 0 0 0 0 0 0 0 0 0 0 0 0 0 0 0 0 3 6 16 16 16 23 19 13 6 10 10 10 6 6 6 6 6 6 6 3 3 3 3 0 0 0
0 0 0 0 0 0 0 0 0 0 0 0 0 0 0 0 0 3 10 13 10 16 19 19 19 16 13 10 6 6 3 3 3 3 3 3 3 0 0 3 3 3 0 0
0 0 0 0 0 0 0 0 0 0 0 0 0 0 0 0 0 3 13 6 13 13 16 16 16 13 13 13 6 3 6 3 3 3 3 3 3 3 0 0 0 0 0 0
0 0 0 0 0 0 0 0 0 0 0 0 0 0 0 0 0 0 10 10 6 16 16 19 13 6 6 10 10 6 6 3 3 3 3 3 3 3 0 0 0 0 0 0
0 0 0 0 0 0 0 0 0 0 0 0 0 0 0 0 0 0 6 10 13 13 13 13 10 10 6 6 16 13 6 3 6 3 3 3 3 3 0 0 3 3 3 0
0 0 0 0 0 0 0 0 0 0 0 0 0 0 0 0 0 0 6 13 13 16 13 13 10 10 13 16 6 10 3 3 6 6 10 6 3 3 0 3 3 3 0 0
0 0 0 0 0 0 0 0 0 0 0 0 0 0 0 0 0 0 6 6 10 10 10 10 6 10 10 10 13 6 6 6 6 10 10 6 6 3 3 3 0 0 0 0
0 0 0 0 0 0 0 0 0 0 0 0 0 0 0 0 0 0 3 10 13 10 10 10 10 10 10 10 3 3 6 6 10 13 6 10 6 3 0 0 0 0 0 0
0 0 0 0 0 0 0 0 0 0 0 0 0 0 0 0 0 3 3 13 13 13 10 10 13 10 10 3 3 0 0 6 10 10 10 10 3 3 0 3 3 0 0 0
0 0 0 0 0 0 0 0 0 0 0 0 0 0 0 0 6 6 6 3 10 6 10 10 10 6 6 0 0 3 3 3 10 6 6 6 3 3 0 3 3 0 0 0
0 0 0 0 0 0 0 0 0 0 0 0 0 0 6 6 0 0 0 0 3 6 10 6 3 0 0 0 0 0 0 0 3 3 3 6 3 3 0 0 0 0 0 0
0 0 0 0 0 0 0 0 0 0 0 0 0 3 3 0 0 3 3 0 3 3 0 0 0 0 0 0 0 0 0 0 0 3 6 6 3 3 0 0 0 0 0 0
0 0 0 0 0 0 0 0 0 0 0 0 0 0 0 0 0 3 0 0 0 3 0 0 0 3 3 0 0 0 0 3 3 3 3 3 3 3 0 0 0 0 0 0
0 0 0 0 0 0 0 0 0 0 0 0 0 0 0 0 0 0 0 0 0 3 0 3 3 3 0 0 0 0 0 0 0 3 3 3 3 0 0 0 0 0 0 0
0 0 0 0 0 0 0 0 0 0 0 0 0 0 0 0 0 0 0 0 0 0 3 6 6 6 6 0 0 0 0 0 3 3 3 3 0 0 0 0 0 0 0 0
0 0 0 0 0 0 0 0 0 0 0 0 3 3 3 3 0 0 0 0 0 3 6 6 3 3 3 0 0 3 3 3 3 3 0 0 0 0 0 0 0 0 0 0
0 0 0 0 0 0 0 0 0 0 0 0 0 0 0 3 0 0 3 0 0 3 3 6 3 0 0 0 0 0 3 3 3 3 0 0 0 0 0 0 0 0 0 0
0 0 0 0 0 0 0 0 0 0 0 0 0 0 0 0 0 0 0 0 0 0 0 6 6 0 0 0 0 0 0 0 0 0 0 0 0 0 0 0 0 0 0 0
0 0 0 0 0 0 0 0 0 0 0 0 0 0 0 0 0 0 0 0 0 0 0 0 0 0 0 0 0 0 0 0 0 0 0 0 0 0 0 0 0 0 0 0

GEFSCGP_con_cape1000_132.txt.gz
Probability
0 0 0 0 0 0 0 0 0 0 0 0 0 6 6 35 48 58 71 74 74 61 68 65 61 58 55 58 65 65 74 68 74 58 55 58 58 58 58 74 61 61 61 52
0 0 0 0 0 0 0 0 0 0 0 0 0 0 0 26 55 52 58 74 74 65 68 65 65 55 52 65 58 58 65 65 52 55 71 61 58 55 48 52 61 61 55 58
0 0 0 0 0 0 0 0 0 0 0 0 0 0 13 29 35 48 48 65 68 68 65 65 58 52 52 52 61 48 58 52 52 61 61 48 55 55 39 45 52 45 52 55
0 0 0 0 0 0 0 0 0 0 0 0 0 0 0 16 23 29 42 52 61 68 71 65 65 58 55 58 65 61 61 58 68 71 45 35 35 35 45 48 42 45 42 35
0 0 0 0 0 0 0 0 0 0 0 0 0 0 0 3 10 10 35 55 65 71 77 68 65 61 61 58 61 65 65 68 65 58 58 52 35 45 42 35 42 48 45 32
0 0 0 0 0 0 0 0 0 0 0 0 0 0 0 0 3 0 16 58 65 77 71 68 65 65 65 58 55 58 61 68 61 48 45 48 45 39 35 48 39 45 48 48
0 0 0 0 0 0 0 0 0 0 0 0 0 0 0 3 6 6 19 48 65 71 77 68 65 68 65 55 52 52 58 65 65 52 42 45 42 39 42 29 39 42 35 39
0 0 0 0 0 0 0 0 0 0 0 0 0 0 3 10 13 19 26 48 68 71 71 71 65 71 65 61 58 52 61 71 68 65 65 58 55 45 45 35 35 39 32 35
0 0 0 0 0 0 0 0 0 0 0 0 0 0 10 10 16 32 35 52 58 68 71 74 68 68 65 68 65 55 61 71 74 71 74 74 58 52 39 52 42 35 52 19
0 0 0 0 0 0 0 0 0 0 0 0 0 0 0 26 32 42 61 58 65 61 74 71 68 68 65 61 65 58 65 61 71 71 68 58 65 71 58 55 48 52 52 29
0 0 0 0 0 0 0 0 0 0 0 0 0 0 0 26 39 45 55 58 58 65 65 71 68 65 61 58 58 61 61 55 61 52 61 58 68 61 68 65 45 45 48 61
0 0 0 0 0 0 0 0 0 0 0 0 0 0 0 23 32 45 65 61 65 65 68 61 68 68 61 58 55 52 55 45 52 58 65 65 71 55 58 55 48 58 52 48
0 0 0 0 0 0 0 0 0 0 0 0 0 6 13 45 45 52 58 68 84 77 68 65 65 71 61 58 55 48 52 42 42 52 58 55 65 58 55 45 32 32 45 39
0 0 0 0 0 0 0 0 0 0 0 0 0 3 19 42 42 55 74 81 77 77 81 61 74 71 65 58 58 55 45 39 39 52 48 58 55 61 58 45 39 39 39 39
0 0 0 0 0 0 0 0 0 0 0 0 3 10 23 48 48 68 74 77 74 81 81 77 84 84 81 71 68 58 55 45 42 48 52 55 55 55 42 42 39 35 35 29
0 0 0 0 0 0 0 0 0 0 0 0 3 10 23 42 58 68 74 74 74 77 71 77 74 84 84 77 65 61 61 52 52 48 48 48 48 42 42 39 32 29 29 29
0 6 0 0 0 0 3 3 3 3 6 3 3 16 35 48 68 77 65 68 71 74 74 74 77 81 84 74 65 58 55 42 35 39 45 39 42 39 35 23 26 23 23 19
0 3 3 0 0 0 3 3 3 3 6 6 26 29 39 52 58 65 68 65 65 58 61 68 68 71 65 61 55 71 58 48 42 42 42 39 32 29 23 23 19 23 23 16
0 0 0 0 0 0 0 10 6 10 16 13 26 42 42 48 45 39 42 42 55 48 48 65 61 58 58 55 55 45 48 39 39 35 32 23 23 23 16 16 16 13 13 13
0 3 0 0 0 0 0 13 6 16 19 26 29 35 42 45 39 35 42 39 35 39 48 55 48 45 45 52 45 39 32 35 39 32 26 19 19 16 13 10 10 13 10 6
0 0 0 0 0 0 0 3 3 3 13 19 23 42 42 48 45 45 32 29 32 35 35 42 45 39 39 42 45 39 39 29 29 23 19 16 16 13 13 6 6 6 6 6
0 0 0 0 0 0 0 6 6 16 32 26 26 35 45 42 39 32 29 23 32 32 29 35 42 35 39 39 42 35 32 26 23 16 13 10 10 3 3 3 3 3 3 0
0 0 0 0 0 3 6 10 10 13 19 19 19 19 26 26 26 19 19 19 16 23 26 32 39 35 32 35 32 26 23 19 13 13 6 6 6 6 3 3 0 0 0 0
0 0 0 3 0 6 6 3 10 10 16 13 16 16 16 19 10 13 16 13 16 13 23 23 23 23 16 19 26 26 16 13 10 10 6 6 6 3 0 0 0 0 0 0
0 0 0 3 10 6 10 10 6 10 13 10 16 10 13 10 3 6 6 10 13 19 13 19 19 10 10 10 6 6 6 10 10 6 6 3 3 0 0 0 0 0 0 0
0 0 0 0 10 10 6 6 6 10 10 6 10 3 6 3 3 3 3 6 6 13 10 6 6 3 3 3 3 3 6 6 6 3 3 0 0 0 0 0 0 0 0 0

GEFSCGP_con_cape1000_138.txt.gz
Probability
0 0 0 0 0 0 0 0 0 0 0 0 0 0 0 13 10 55 61 68 81 81 77 77 77 77 71 77 68 74 71 65 71 77 74 68 68 81 81 77 71 74 77 81
0 0 0 0 0 0 0 0 0 0 0 0 0 0 0 10 3 39 61 77 74 84 77 74 71 65 68 71 65 71 74 74 71 81 77 71 74 77 81 81 81 81 68 74
0 0 0 0 0 0 0 0 0 0 0 0 0 0 3 3 10 19 45 74 74 81 74 65 68 65 68 65 65 65 71 74 81 77 71 61 71 74 71 74 81 81 71 65
0 0 0 0 0 0 0 0 0 0 0 0 0 0 6 3 13 23 35 74 71 74 77 68 65 68 65 61 71 77 77 77 81 84 74 58 61 61 71 77 77 81 71 58
0 0 0 0 0 0 0 0 0 0 0 0 0 0 0 13 13 16 32 58 68 65 74 71 68 71 68 61 65 74 81 81 87 81 84 74 65 58 58 74 81 71 74 58
0 0 0 0 0 0 0 0 0 0 0 0 0 0 6 0 6 16 32 48 74 68 77 71 77 77 74 65 71 74 81 84 87 81 81 81 71 68 68 68 68 68 74 68
0 0 0 0 0 0 0 0 0 0 0 0 0 0 10 10 3 19 35 55 74 77 74 74 71 81 77 71 71 68 81 81 87 81 81 81 71 68 65 61 68 61 58 58
0 0 0 0 0 0 0 0 0 0 0 0 0 0 13 6 16 29 35 52 68 71 68 68 65 68 74 71 71 68 74 81 81 77 81 84 84 65 65 55 61 58 61 52
0 0 0 0 0 0 0 0 0 0 0 0 0 6 16 13 16 23 32 52 61 77 81 68 65 68 71 71 74 74 74 81 77 84 84 81 77 71 71 74 55 52 77 65
0 0 0 0 0 0 0 0 0 0 0 0 0 0 10 19 29 26 52 55 77 77 81 74 71 68 71 74 74 74 77 84 84 81 81 58 71 71 68 65 61 71 77 71
0 0 0 0 0 0 0 0 0 0 0 0 0 0 6 23 39 42 52 55 77 77 74 77 77 77 74 74 74 74 74 84 81 77 74 81 71 74 65 71 74 71 74 68
0 0 0 0 0 0 0 0 0 0 10 3 0 0 6 26 26 35 45 65 68 74 81 77 74 74 77 74 71 71 71 77 77 74 71 74 74 71 61 68 71 65 65 61
0 0 0 0 0 0 0 0 0 0 0 0 0 0 13 16 26 35 55 77 71 77 77 84 77 81 74 74 68 68 74 77 74 81 77 77 77 74 71 61 65 65 61 58
0 0 0 0 0 0 0 0 0 0 0 0 0 3 16 19 32 42 61 74 81 84 84 81 87 87 81 77 74 71 68 71 71 77 77 74 74 68 71 68 61 58 58 52
0 0 0 0 0 0 0 0 0 0 0 0 0 0 16 23 42 61 65 74 77 81 81 84 87 87 81 81 74 71 74 77 81 81 74 68 68 65 65 55 48 45 39 39
0 0 0 0 0 0 0 0 0 0 0 0 0 6 16 29 45 65 71 74 74 87 84 77 84 87 84 81 77 81 74 71 74 68 68 61 58 52 52 42 39 39 35 35
0 0 0 0 0 0 0 0 0 0 0 0 0 3 19 35 52 61 71 74 74 77 81 84 84 87 84 81 84 84 74 71 71 68 58 52 45 39 35 35 39 32 29 23
0 6 6 0 0 0 0 0 3 6 0 3 10 26 35 42 55 65 68 81 77 81 77 87 81 77 84 84 84 74 77 65 61 52 48 42 35 32 32 32 29 26 26 19
0 23 0 0 0 0 0 0 0 6 13 19 26 35 42 45 52 61 58 71 74 74 81 81 84 84 84 81 77 71 68 58 45 48 42 32 32 32 32 26 23 19 19 16
0 13 0 0 0 0 0 0 0 0 13 26 35 52 52 45 55 61 58 58 52 58 61 68 68 71 77 74 71 61 58 55 52 52 39 32 32 29 19 19 19 16 13 10
0 0 0 0 0 0 0 0 3 3 19 35 35 48 52 65 68 65 58 48 48 52 55 48 52 58 61 61 58 52 48 39 42 42 35 29 29 23 19 16 16 16 10 3
0 0 0 0 0 0 0 0 10 42 52 39 45 42 52 58 48 45 45 42 39 39 42 39 45 48 52 52 52 45 39 39 35 32 29 26 16 16 13 13 10 6 3 3
0 0 0 0 0 29 26 35 32 32 35 39 39 42 45 39 32 35 29 35 29 26 35 32 39 42 42 48 45 39 39 32 29 26 19 13 10 6 6 6 3 3 3 3
0 3 10 16 23 23 23 19 19 16 23 32 32 35 39 35 29 26 23 29 29 26 26 29 39 42 32 26 23 29 23 19 19 16 16 10 10 6 3 3 3 0 0 0
0 0 3 10 19 19 19 23 16 10 13 26 29 26 29 29 32 23 19 19 23 23 26 23 32 26 16 16 16 16 19 16 13 10 6 6 3 0 0 0 0 0 0 0
0 0 0 3 13 16 19 13 10 13 19 16 16 19 26 29 23 19 13 13 16 16 23 29 26 19 19 16 16 16 13 10 10 6 6 3 0 0 0 0 0 0 0 0